LCKY02 KNDZ-KNDZ

Flight info

Callsign LCKY02
Flight time 1h 14m
Altitude 2500
Route KNDZ 12J MVC 0R1 KNDZ
Aircraft B06/L-G/S

Departure

Time 2026-05-07 03:51
Airport Whiting Field Naval Air Station South Airport (KNDZ)

Arrival

Time 2026-05-07 05:05
Airport Whiting Field Naval Air Station South Airport (KNDZ)
Time Latitude Longitude Altitude Speed Heading
2026-05-07 03:33 30.70216 -87.01571 180 ft 0 kts
2026-05-07 03:48 30.70218 -87.01564 184 ft 2 kts 333°
2026-05-07 03:48 30.70228 -87.01597 208 ft 8 kts 258°
2026-05-07 03:48 30.70241 -87.01645 212 ft 13 kts 256°
2026-05-07 03:49 30.70250 -87.01734 198 ft 12 kts 257°
2026-05-07 03:49 30.70260 -87.01848 228 ft 20 kts 235°
2026-05-07 03:49 30.70249 -87.02049 251 ft 28 kts 217°
2026-05-07 03:49 30.70022 -87.02013 253 ft 48 kts 126°
2026-05-07 03:50 30.69735 -87.01711 273 ft 63 kts 125°
2026-05-07 03:50 30.69386 -87.01333 295 ft 71 kts 130°
2026-05-07 03:50 30.69006 -87.00947 470 ft 72 kts 133°
2026-05-07 03:50 30.68618 -87.00597 745 ft 70 kts 137°
2026-05-07 03:51 30.68534 -87.00088 1058 ft 78 kts 56°
2026-05-07 03:51 30.69100 -87.00012 995 ft 94 kts 326°
2026-05-07 03:51 30.69652 -87.00509 989 ft 102 kts 315°
2026-05-07 03:51 30.70245 -87.01016 1045 ft 105 kts 321°
2026-05-07 03:52 30.70882 -87.01426 1158 ft 106 kts 326°
2026-05-07 03:52 30.71598 -87.01722 1220 ft 111 kts 345°
2026-05-07 03:52 30.72372 -87.01807 1448 ft 116 kts 354°
2026-05-07 03:52 30.73163 -87.01778 1771 ft 110 kts 359°
2026-05-07 03:53 30.73932 -87.01687 2020 ft 113 kts
2026-05-07 03:53 30.74698 -87.01511 2244 ft 115 kts
2026-05-07 03:53 30.75529 -87.01514 2308 ft 124 kts 345°
2026-05-07 03:53 30.76363 -87.01701 2489 ft 123 kts 346°
2026-05-07 03:54 30.77258 -87.01870 2350 ft 134 kts 346°
2026-05-07 03:54 30.78107 -87.01990 2611 ft 119 kts 352°
2026-05-07 03:54 30.78978 -87.02062 2496 ft 129 kts 351°
2026-05-07 03:54 30.79856 -87.02158 2551 ft 123 kts 351°
2026-05-07 03:55 30.80727 -87.02253 2453 ft 126 kts 349°
2026-05-07 03:55 30.81590 -87.02399 2357 ft 128 kts 340°
2026-05-07 03:55 30.82394 -87.02672 2526 ft 112 kts 336°
2026-05-07 03:55 30.83142 -87.03000 2501 ft 118 kts 339°
2026-05-07 03:56 30.83963 -87.03170 2504 ft 120 kts 346°
2026-05-07 03:56 30.84778 -87.03316 2518 ft 118 kts 347°
2026-05-07 03:56 30.85602 -87.03422 2564 ft 119 kts 347°
2026-05-07 03:56 30.86412 -87.03575 2580 ft 119 kts 345°
2026-05-07 03:57 30.87235 -87.03668 2566 ft 119 kts 354°
2026-05-07 03:57 30.88076 -87.03690 2553 ft 119 kts 352°
2026-05-07 03:57 30.88889 -87.03768 2536 ft 119 kts 347°
2026-05-07 03:57 30.89708 -87.03912 2568 ft 119 kts 344°
2026-05-07 03:58 30.90522 -87.04100 2590 ft 119 kts 343°
2026-05-07 03:58 30.91346 -87.04286 2557 ft 121 kts 343°
2026-05-07 03:58 30.92167 -87.04479 2564 ft 119 kts 344°
2026-05-07 03:58 30.92990 -87.04645 2527 ft 121 kts 346°
2026-05-07 03:59 30.93827 -87.04756 2509 ft 121 kts 348°
2026-05-07 03:59 30.94660 -87.04869 2506 ft 120 kts 348°
2026-05-07 03:59 30.95493 -87.04988 2466 ft 122 kts 346°
2026-05-07 03:59 30.96325 -87.05113 2470 ft 119 kts 348°
2026-05-07 04:00 30.97167 -87.05206 2469 ft 123 kts 356°
2026-05-07 04:00 30.98014 -87.05151 2531 ft 122 kts 358°
2026-05-07 04:00 30.98874 -87.05196 2472 ft 122 kts 348°
2026-05-07 04:00 30.99695 -87.05386 2519 ft 121 kts 342°
2026-05-07 04:01 31.00530 -87.05563 2505 ft 123 kts 347°
2026-05-07 04:01 31.01373 -87.05714 2498 ft 125 kts 344°
2026-05-07 04:01 31.02252 -87.05890 2226 ft 129 kts 345°
2026-05-07 04:01 31.03150 -87.06066 1884 ft 130 kts 343°
2026-05-07 04:02 31.04004 -87.06252 1681 ft 123 kts 343°
2026-05-07 04:02 31.04841 -87.06375 1374 ft 120 kts 347°
2026-05-07 04:02 31.05539 -87.06733 1172 ft 105 kts 297°
2026-05-07 04:02 31.05588 -87.07525 920 ft 97 kts 223°
2026-05-07 04:03 31.05121 -87.07357 525 ft 101 kts 111°
2026-05-07 04:03 31.04814 -87.06592 151 ft 84 kts 113°
2026-05-07 04:03 31.04607 -87.06203 120 ft 36 kts 106°
2026-05-07 04:03 31.04546 -87.06084 119 ft 7 kts 128°
2026-05-07 04:04 31.04401 -87.05804 251 ft 68 kts 123°
2026-05-07 04:04 31.04150 -87.05262 592 ft 82 kts 95°
2026-05-07 04:04 31.04508 -87.04811 991 ft 82 kts
2026-05-07 04:04 31.05067 -87.04723 1403 ft 87 kts
2026-05-07 04:05 31.05740 -87.04784 1629 ft 98 kts 340°
2026-05-07 04:05 31.06321 -87.05253 1907 ft 106 kts 309°
2026-05-07 04:05 31.06868 -87.05920 2036 ft 119 kts 317°
2026-05-07 04:05 31.07561 -87.06486 2217 ft 120 kts 324°
2026-05-07 04:06 31.08260 -87.06970 2457 ft 117 kts 332°
2026-05-07 04:06 31.08956 -87.07465 2653 ft 119 kts 326°
2026-05-07 04:06 31.09639 -87.08115 2513 ft 127 kts 321°
2026-05-07 04:06 31.10319 -87.08714 2632 ft 122 kts 322°
2026-05-07 04:07 31.11000 -87.09270 2738 ft 120 kts 330°
2026-05-07 04:07 31.11766 -87.09649 2736 ft 126 kts 338°
2026-05-07 04:07 31.12569 -87.10107 2576 ft 126 kts 327°
2026-05-07 04:07 31.13254 -87.10708 2472 ft 126 kts 316°
2026-05-07 04:08 31.13887 -87.11420 2413 ft 121 kts 316°
2026-05-07 04:08 31.14498 -87.12086 2344 ft 119 kts 316°
2026-05-07 04:08 31.15087 -87.12778 2186 ft 127 kts 311°
2026-05-07 04:08 31.15648 -87.13435 2470 ft 103 kts 319°
2026-05-07 04:09 31.16223 -87.13973 2557 ft 112 kts 325°
2026-05-07 04:09 31.16904 -87.14416 2660 ft 115 kts 333°
2026-05-07 04:09 31.17643 -87.14829 2673 ft 120 kts 338°
2026-05-07 04:09 31.18440 -87.15162 2687 ft 123 kts 340°
2026-05-07 04:10 31.19234 -87.15497 2636 ft 123 kts 340°
2026-05-07 04:10 31.20072 -87.15812 2461 ft 123 kts 340°
2026-05-07 04:10 31.20863 -87.16111 2499 ft 118 kts 340°
2026-05-07 04:10 31.21600 -87.16476 2568 ft 110 kts 334°
2026-05-07 04:11 31.22297 -87.16868 2527 ft 111 kts 335°
2026-05-07 04:11 31.23009 -87.17186 2534 ft 111 kts 341°
2026-05-07 04:11 31.23739 -87.17537 2550 ft 112 kts 334°
2026-05-07 04:11 31.24490 -87.17904 2419 ft 117 kts 334°
2026-05-07 04:12 31.25157 -87.18351 2485 ft 110 kts 328°
2026-05-07 04:12 31.25849 -87.18819 2449 ft 115 kts 326°
2026-05-07 04:12 31.26486 -87.19333 2505 ft 110 kts 327°
2026-05-07 04:12 31.27166 -87.19799 2439 ft 112 kts 329°
2026-05-07 04:13 31.27873 -87.20171 2408 ft 115 kts 337°
2026-05-07 04:13 31.28606 -87.20528 2406 ft 111 kts 335°
2026-05-07 04:13 31.29301 -87.20935 2373 ft 113 kts 331°
2026-05-07 04:13 31.29929 -87.21498 2331 ft 114 kts 311°
2026-05-07 04:14 31.30481 -87.22128 2382 ft 111 kts 319°
2026-05-07 04:14 31.31079 -87.22704 2364 ft 113 kts 321°
2026-05-07 04:14 31.31703 -87.23269 2419 ft 112 kts 322°
2026-05-07 04:14 31.32334 -87.23801 2432 ft 114 kts 323°
2026-05-07 04:15 31.32948 -87.24364 2470 ft 113 kts 318°
2026-05-07 04:15 31.33547 -87.24951 2454 ft 112 kts 321°
2026-05-07 04:15 31.34151 -87.25524 2432 ft 111 kts 322°
2026-05-07 04:15 31.34777 -87.26042 2473 ft 110 kts 324°
2026-05-07 04:16 31.35404 -87.26557 2518 ft 110 kts 324°
2026-05-07 04:16 31.36059 -87.27061 2509 ft 114 kts 328°
2026-05-07 04:16 31.36735 -87.27534 2537 ft 114 kts 328°
2026-05-07 04:16 31.37197 -87.27865 2529 ft 115 kts 329°
2026-05-07 04:17 31.38100 -87.28477 2576 ft 114 kts 330°
2026-05-07 04:17 31.38576 -87.28795 2483 ft 119 kts 328°
2026-05-07 04:17 31.39280 -87.29310 2360 ft 118 kts 325°
2026-05-07 04:17 31.39926 -87.29850 2238 ft 110 kts 319°
2026-05-07 04:18 31.40496 -87.30410 1993 ft 105 kts 316°
2026-05-07 04:18 31.41001 -87.31019 1725 ft 104 kts 310°
2026-05-07 04:18 31.41446 -87.31621 1530 ft 91 kts 307°
2026-05-07 04:18 31.41833 -87.32172 1364 ft 85 kts 306°
2026-05-07 04:19 31.42209 -87.32681 1368 ft 82 kts 312°
2026-05-07 04:19 31.42603 -87.33154 1431 ft 79 kts 320°
2026-05-07 04:19 31.43078 -87.33505 1458 ft 82 kts 327°
2026-05-07 04:19 31.43549 -87.33866 1491 ft 83 kts 327°
2026-05-07 04:20 31.44094 -87.34186 1537 ft 92 kts 341°
2026-05-07 04:20 31.44749 -87.34203 1575 ft 98 kts 12°
2026-05-07 04:20 31.45383 -87.33884 1604 ft 100 kts 27°
2026-05-07 04:21 31.46617 -87.33653 1405 ft 79 kts 308°
2026-05-07 04:21 31.46781 -87.34215 1074 ft 70 kts 258°
2026-05-07 04:21 31.46560 -87.34603 739 ft 45 kts 202°
2026-05-07 04:21 31.46368 -87.34733 628 ft 23 kts 214°
2026-05-07 04:22 31.46270 -87.34792 542 ft 8 kts 225°
2026-05-07 04:22 31.46231 -87.34826 428 ft 5 kts 251°
2026-05-07 04:22 31.46245 -87.34875 426 ft 11 kts 300°
2026-05-07 04:22 31.46280 -87.34949 435 ft 7 kts 358°
2026-05-07 04:23 31.46299 -87.34956 427 ft 2 kts 131°
2026-05-07 04:23 31.46299 -87.34949 421 ft 0 kts 111°
2026-05-07 04:29 31.46292 -87.34946 442 ft 2 kts 130°
2026-05-07 04:29 31.46268 -87.34912 493 ft 13 kts 118°
2026-05-07 04:29 31.46135 -87.34917 513 ft 33 kts 192°
2026-05-07 04:29 31.45826 -87.35107 564 ft 67 kts 207°
2026-05-07 04:30 31.45697 -87.35193 569 ft 74 kts 207°
2026-05-07 04:30 31.45690 -87.35198 570 ft 74 kts 207°
2026-05-07 04:30 31.45228 -87.35533 729 ft 82 kts 212°
2026-05-07 04:30 31.44686 -87.35823 944 ft 90 kts 203°
2026-05-07 04:31 31.44145 -87.36108 1362 ft 80 kts 208°
2026-05-07 04:31 31.43637 -87.36403 1746 ft 84 kts 208°
2026-05-07 04:31 31.43027 -87.36609 1964 ft 100 kts 192°
2026-05-07 04:31 31.42339 -87.36786 2158 ft 98 kts 195°
2026-05-07 04:32 31.41725 -87.36962 2518 ft 91 kts 194°
2026-05-07 04:32 31.41101 -87.37155 2757 ft 92 kts 197°
2026-05-07 04:32 31.40441 -87.37346 2838 ft 107 kts 191°
2026-05-07 04:32 31.39660 -87.37503 2732 ft 114 kts 188°
2026-05-07 04:33 31.38870 -87.37641 2659 ft 114 kts 187°
2026-05-07 04:33 31.38094 -87.37801 2610 ft 114 kts 190°
2026-05-07 04:33 31.37319 -87.37939 2568 ft 113 kts 186°
2026-05-07 04:33 31.36522 -87.38041 2454 ft 116 kts 185°
2026-05-07 04:34 31.35733 -87.38126 2443 ft 112 kts 184°
2026-05-07 04:34 31.34971 -87.38196 2447 ft 109 kts 183°
2026-05-07 04:34 31.34214 -87.38253 2451 ft 108 kts 182°
2026-05-07 04:34 31.33469 -87.38287 2457 ft 109 kts 181°
2026-05-07 04:35 31.32706 -87.38315 2447 ft 108 kts 182°
2026-05-07 04:35 31.31970 -87.38445 2466 ft 107 kts 192°
2026-05-07 04:35 31.31244 -87.38651 2471 ft 107 kts 193°
2026-05-07 04:35 31.30518 -87.38847 2488 ft 107 kts 192°
2026-05-07 04:36 31.29791 -87.39027 2496 ft 107 kts 190°
2026-05-07 04:36 31.29057 -87.39194 2503 ft 107 kts 192°
2026-05-07 04:36 31.28320 -87.39391 2480 ft 109 kts 192°
2026-05-07 04:36 31.27591 -87.39566 2512 ft 106 kts 190°
2026-05-07 04:37 31.26859 -87.39738 2509 ft 108 kts 191°
2026-05-07 04:37 31.26140 -87.39953 2521 ft 108 kts 195°
2026-05-07 04:37 31.25420 -87.40196 2534 ft 107 kts 194°
2026-05-07 04:37 31.24700 -87.40417 2550 ft 106 kts 194°
2026-05-07 04:38 31.23973 -87.40646 2559 ft 107 kts 194°
2026-05-07 04:38 31.23240 -87.40872 2488 ft 113 kts 193°
2026-05-07 04:38 31.22478 -87.41106 2428 ft 114 kts 195°
2026-05-07 04:38 31.21729 -87.41369 2389 ft 114 kts 196°
2026-05-07 04:39 31.20981 -87.41610 2423 ft 108 kts 195°
2026-05-07 04:39 31.20265 -87.41865 2438 ft 107 kts 197°
2026-05-07 04:39 31.19557 -87.42127 2456 ft 107 kts 197°
2026-05-07 04:39 31.18821 -87.42331 2425 ft 110 kts 190°
2026-05-07 04:40 31.18068 -87.42515 2400 ft 110 kts 192°
2026-05-07 04:40 31.17322 -87.42705 2393 ft 110 kts 193°
2026-05-07 04:40 31.16569 -87.42899 2351 ft 111 kts 194°
2026-05-07 04:40 31.15816 -87.43108 2322 ft 111 kts 193°
2026-05-07 04:41 31.15095 -87.43282 2441 ft 99 kts 191°
2026-05-07 04:41 31.14425 -87.43436 2504 ft 100 kts 194°
2026-05-07 04:41 31.13750 -87.43626 2552 ft 100 kts 194°
2026-05-07 04:41 31.13054 -87.43837 2539 ft 104 kts 195°
2026-05-07 04:42 31.12374 -87.44062 2599 ft 103 kts 199°
2026-05-07 04:42 31.11685 -87.44321 2622 ft 102 kts 202°
2026-05-07 04:42 31.11037 -87.44639 2645 ft 104 kts 203°
2026-05-07 04:42 31.10308 -87.44833 2537 ft 113 kts 185°
2026-05-07 04:43 31.09504 -87.44892 2338 ft 116 kts 182°
2026-05-07 04:43 31.08736 -87.44882 2204 ft 103 kts 177°
2026-05-07 04:43 31.08025 -87.44860 2006 ft 101 kts 179°
2026-05-07 04:43 31.07326 -87.44842 1829 ft 99 kts 179°
2026-05-07 04:44 31.06634 -87.44824 1620 ft 100 kts 179°
2026-05-07 04:44 31.05931 -87.44809 1425 ft 102 kts 178°
2026-05-07 04:44 31.05217 -87.44777 1279 ft 103 kts 177°
2026-05-07 04:44 31.04489 -87.44750 1007 ft 102 kts 179°
2026-05-07 04:45 31.03806 -87.44739 800 ft 91 kts 175°
2026-05-07 04:45 31.03213 -87.44706 635 ft 79 kts 176°
2026-05-07 04:45 31.02712 -87.44690 529 ft 63 kts 177°
2026-05-07 04:45 31.02361 -87.44687 389 ft 40 kts 176°
2026-05-07 04:46 31.02196 -87.44680 334 ft 12 kts 182°
2026-05-07 04:46 31.02171 -87.44681 297 ft 0 kts 185°
2026-05-07 04:46 31.02110 -87.44681 347 ft 25 kts 186°
2026-05-07 04:46 31.01822 -87.44689 468 ft 58 kts 183°
2026-05-07 04:47 31.01358 -87.44716 620 ft 74 kts 184°
2026-05-07 04:47 31.00848 -87.44730 834 ft 74 kts 184°
2026-05-07 04:47 31.00366 -87.44758 1231 ft 66 kts 185°
2026-05-07 04:47 30.99893 -87.44764 1555 ft 72 kts 179°
2026-05-07 04:48 30.99402 -87.44643 1898 ft 76 kts 162°
2026-05-07 04:48 30.98959 -87.44240 2156 ft 87 kts 131°
2026-05-07 04:48 30.98614 -87.43633 2397 ft 93 kts 123°
2026-05-07 04:48 30.98262 -87.42945 2515 ft 104 kts 121°
2026-05-07 04:49 30.97899 -87.42192 2538 ft 108 kts 119°
2026-05-07 04:49 30.97509 -87.41405 2456 ft 114 kts 121°
2026-05-07 04:49 30.97056 -87.40692 2490 ft 110 kts 129°
2026-05-07 04:49 30.96580 -87.39980 2441 ft 113 kts 126°
2026-05-07 04:50 30.96143 -87.39241 2463 ft 110 kts 126°
2026-05-07 04:50 30.95695 -87.38508 2429 ft 111 kts 126°
2026-05-07 04:50 30.95237 -87.37800 2452 ft 109 kts 128°
2026-05-07 04:50 30.94934 -87.37317 2443 ft 110 kts 125°
2026-05-07 04:51 30.94509 -87.36576 2436 ft 110 kts 125°
2026-05-07 04:51 30.94056 -87.35861 2427 ft 110 kts 127°
2026-05-07 04:51 30.93604 -87.35146 2436 ft 109 kts 129°
2026-05-07 04:51 30.93170 -87.34429 2460 ft 107 kts 124°
2026-05-07 04:52 30.92755 -87.33694 2427 ft 111 kts 123°
2026-05-07 04:52 30.92271 -87.33014 2425 ft 111 kts 136°
2026-05-07 04:52 30.91684 -87.32441 2425 ft 109 kts 142°
2026-05-07 04:52 30.91107 -87.31870 2437 ft 108 kts 139°
2026-05-07 04:53 30.90569 -87.31288 2497 ft 104 kts 138°
2026-05-07 04:53 30.90034 -87.30702 2508 ft 106 kts 141°
2026-05-07 04:53 30.89469 -87.30146 2532 ft 106 kts 140°
2026-05-07 04:53 30.88884 -87.29637 2551 ft 107 kts 144°
2026-05-07 04:54 30.88292 -87.29108 2588 ft 105 kts 141°
2026-05-07 04:54 30.87776 -87.28511 2634 ft 104 kts 133°
2026-05-07 04:54 30.87293 -87.27868 2641 ft 107 kts 129°
2026-05-07 04:54 30.86813 -87.27212 2661 ft 107 kts 131°
2026-05-07 04:55 30.86339 -87.26530 2656 ft 109 kts 129°
2026-05-07 04:55 30.85869 -87.25821 2620 ft 111 kts 127°
2026-05-07 04:55 30.85361 -87.25140 2580 ft 113 kts 137°
2026-05-07 04:55 30.84800 -87.24530 2620 ft 108 kts 137°
2026-05-07 04:56 30.84280 -87.23869 2568 ft 113 kts 129°
2026-05-07 04:56 30.83824 -87.23148 2602 ft 109 kts 125°
2026-05-07 04:56 30.83377 -87.22425 2582 ft 110 kts 132°
2026-05-07 04:56 30.82844 -87.21778 2572 ft 110 kts 135°
2026-05-07 04:57 30.82305 -87.21132 2531 ft 114 kts 133°
2026-05-07 04:57 30.81796 -87.20440 2522 ft 111 kts 129°
2026-05-07 04:57 30.81321 -87.19729 2519 ft 111 kts 128°
2026-05-07 04:57 30.80865 -87.19014 2546 ft 109 kts 126°
2026-05-07 04:58 30.80443 -87.18291 2578 ft 107 kts 125°
2026-05-07 04:58 30.80015 -87.17570 2571 ft 109 kts 126°
2026-05-07 04:58 30.79507 -87.16902 2565 ft 109 kts 132°
2026-05-07 04:58 30.79045 -87.16205 2576 ft 109 kts 126°
2026-05-07 04:59 30.78583 -87.15482 2517 ft 114 kts 128°
2026-05-07 04:59 30.78100 -87.14760 2516 ft 111 kts 130°
2026-05-07 04:59 30.77618 -87.14051 2494 ft 112 kts 127°
2026-05-07 04:59 30.77163 -87.13318 2487 ft 112 kts 126°
2026-05-07 05:00 30.76708 -87.12589 2476 ft 112 kts 126°
2026-05-07 05:00 30.76202 -87.11912 2462 ft 112 kts 136°
2026-05-07 05:00 30.75625 -87.11296 2430 ft 112 kts 141°
2026-05-07 05:00 30.75035 -87.10701 2409 ft 112 kts 138°
2026-05-07 05:01 30.74495 -87.10044 2390 ft 112 kts 132°
2026-05-07 05:01 30.73982 -87.09361 2366 ft 113 kts 129°
2026-05-07 05:01 30.73546 -87.08601 2337 ft 113 kts 119°
2026-05-07 05:01 30.73168 -87.07806 2319 ft 113 kts 123°
2026-05-07 05:02 30.72723 -87.07034 2076 ft 123 kts 123°
2026-05-07 05:02 30.72241 -87.06193 1782 ft 122 kts 122°
2026-05-07 05:02 30.71821 -87.05403 1605 ft 112 kts 120°
2026-05-07 05:02 30.71414 -87.04637 1397 ft 110 kts 121°
2026-05-07 05:03 30.71018 -87.03884 1272 ft 106 kts 122°
2026-05-07 05:03 30.70615 -87.03181 1187 ft 103 kts 126°
2026-05-07 05:03 30.70232 -87.02502 1149 ft 99 kts 120°
2026-05-07 05:03 30.69881 -87.01826 1135 ft 96 kts 117°
2026-05-07 05:04 30.69790 -87.01115 1199 ft 90 kts 81°
2026-05-07 05:04 30.69989 -87.00426 1211 ft 89 kts 63°
2026-05-07 05:04 30.70328 -86.99803 1164 ft 95 kts 44°
2026-05-07 05:04 30.70954 -86.99665 1023 ft 100 kts 335°
2026-05-07 05:05 30.71243 -87.00349 829 ft 105 kts 255°
2026-05-07 05:05 30.70700 -87.00755 580 ft 95 kts 185°
2026-05-07 05:05 30.70206 -87.00950 377 ft 58 kts 228°
2026-05-07 05:05 30.70023 -87.01251 257 ft 35 kts 227°
2026-05-07 05:06 30.69938 -87.01406 200 ft 14 kts 319°
2026-05-07 05:06 30.70036 -87.01460 246 ft 19 kts 345°
2026-05-07 05:06 30.70210 -87.01472 276 ft 24 kts 355°
2026-05-07 05:06 30.70330 -87.01469 187 ft 10 kts 358°
2026-05-07 05:07 30.70345 -87.01466 181 ft 0 kts 354°